TimeEST,TemperatureF,Dew PointF,Humidity,Sea Level PressureIn,VisibilityMPH,Wind Direction,Wind SpeedMPH,Gust SpeedMPH,PrecipitationIn,Events,Conditions,WindDirDegrees,DateUTC
12:15 AM,36.7,31.5,81,30.11,10.0,NNE,8.1,-,N/A,,Overcast,20,2012-12-09 05:15:00
12:35 AM,36.7,31.8,83,30.12,10.0,North,5.8,-,N/A,,Overcast,10,2012-12-09 05:35:00
12:55 AM,36.5,32.0,84,30.12,10.0,NE,6.9,-,N/A,,Overcast,40,2012-12-09 05:55:00
1:15 AM,36.0,31.3,83,30.12,10.0,NE,8.1,-,N/A,,Overcast,40,2012-12-09 06:15:00
1:35 AM,36.0,31.8,85,30.13,10.0,ENE,6.9,-,N/A,,Overcast,60,2012-12-09 06:35:00
1:56 AM,35.8,31.1,83,30.13,10.0,NE,10.4,-,N/A,,Overcast,50,2012-12-09 06:56:00
2:15 AM,35.6,30.7,82,30.13,10.0,NE,11.5,-,N/A,,Overcast,40,2012-12-09 07:15:00
2:35 AM,35.6,30.4,81,30.14,10.0,ENE,10.4,16.1,N/A,,Overcast,60,2012-12-09 07:35:00
2:55 AM,35.2,30.4,82,30.14,10.0,ENE,8.1,-,N/A,,Overcast,70,2012-12-09 07:55:00
3:15 AM,35.2,30.6,83,30.14,10.0,ENE,9.2,-,N/A,,Overcast,60,2012-12-09 08:15:00
3:35 AM,35.2,30.7,84,30.14,10.0,ENE,10.4,-,N/A,,Overcast,60,2012-12-09 08:35:00
3:55 AM,34.9,30.6,84,30.13,10.0,ENE,9.2,-,N/A,,Overcast,60,2012-12-09 08:55:00
4:15 AM,34.7,30.2,84,30.13,10.0,ENE,10.4,-,N/A,,Overcast,70,2012-12-09 09:15:00
4:35 AM,34.7,30.7,85,30.14,10.0,ENE,8.1,-,N/A,,Overcast,70,2012-12-09 09:35:00
4:56 AM,34.9,31.1,86,30.14,10.0,East,8.1,-,N/A,,Overcast,80,2012-12-09 09:56:00
5:15 AM,34.7,31.1,87,30.14,10.0,East,5.8,-,N/A,,Overcast,80,2012-12-09 10:15:00
5:35 AM,34.7,31.6,89,30.13,10.0,East,6.9,-,N/A,,Overcast,80,2012-12-09 10:35:00
5:55 AM,34.7,31.6,89,30.12,10.0,ENE,9.2,-,N/A,,Overcast,70,2012-12-09 10:55:00
6:15 AM,34.5,31.5,89,30.12,10.0,ENE,8.1,-,N/A,,Overcast,70,2012-12-09 11:15:00
6:35 AM,34.7,31.5,88,30.12,10.0,ENE,6.9,-,N/A,,Overcast,70,2012-12-09 11:35:00
6:55 AM,34.7,31.6,89,30.13,10.0,East,6.9,-,N/A,,Overcast,80,2012-12-09 11:55:00
7:15 AM,34.7,31.6,89,30.13,10.0,East,10.4,-,N/A,,Overcast,90,2012-12-09 12:15:00
7:35 AM,34.7,31.6,89,30.12,10.0,ENE,9.2,-,N/A,,Overcast,70,2012-12-09 12:35:00
7:56 AM,34.7,31.8,89,30.13,10.0,East,8.1,-,N/A,,Overcast,80,2012-12-09 12:56:00
8:15 AM,34.7,31.6,89,30.12,10.0,East,9.2,-,N/A,,Overcast,80,2012-12-09 13:15:00
8:35 AM,34.3,31.3,89,30.11,10.0,ENE,8.1,-,N/A,,Overcast,60,2012-12-09 13:35:00
8:55 AM,34.9,31.8,89,30.10,10.0,East,8.1,-,N/A,,Overcast,80,2012-12-09 13:55:00
9:15 AM,35.1,31.8,88,30.10,10.0,East,9.2,-,N/A,,Overcast,80,2012-12-09 14:15:00
9:35 AM,35.4,32.0,87,30.09,10.0,East,11.5,-,N/A,,Overcast,80,2012-12-09 14:35:00
9:55 AM,35.6,32.0,87,30.09,10.0,East,10.4,-,N/A,,Overcast,80,2012-12-09 14:55:00
10:15 AM,36.0,32.0,86,30.09,10.0,East,10.4,-,N/A,,Overcast,80,2012-12-09 15:15:00
10:35 AM,35.6,32.0,87,30.06,10.0,East,9.2,-,N/A,,Mostly Cloudy,90,2012-12-09 15:35:00
10:55 AM,37.2,32.7,84,30.06,10.0,East,9.2,-,N/A,,Mostly Cloudy,90,2012-12-09 15:55:00
11:35 AM,39.2,32.9,78,30.03,10.0,East,11.5,-,N/A,,Overcast,100,2012-12-09 16:35:00
11:55 AM,40.3,34.0,78,30.00,10.0,East,8.1,-,N/A,,Overcast,100,2012-12-09 16:55:00
12:15 PM,40.8,34.0,77,30.00,10.0,ESE,6.9,-,N/A,,Overcast,110,2012-12-09 17:15:00
12:35 PM,41.0,34.0,76,29.98,10.0,ESE,6.9,-,N/A,,Overcast,110,2012-12-09 17:35:00
12:55 PM,41.5,34.3,76,29.98,10.0,ESE,10.4,-,N/A,,Overcast,120,2012-12-09 17:55:00
1:15 PM,42.3,35.6,77,29.97,10.0,ESE,9.2,-,N/A,,Overcast,110,2012-12-09 18:15:00
1:35 PM,42.8,36.5,78,29.94,10.0,ESE,11.5,-,N/A,,Overcast,110,2012-12-09 18:35:00
1:55 PM,42.8,36.5,78,29.95,10.0,ESE,10.4,-,N/A,,Overcast,120,2012-12-09 18:55:00
2:15 PM,43.0,36.7,78,29.94,10.0,ESE,9.2,-,N/A,,Overcast,110,2012-12-09 19:15:00
2:35 PM,42.8,37.9,83,29.93,10.0,ESE,6.9,-,N/A,Rain,Rain,120,2012-12-09 19:35:00
2:56 PM,42.8,39.9,90,29.91,10.0,ESE,8.1,-,N/A,,Light Drizzle,110,2012-12-09 19:56:00
3:15 PM,42.8,41.0,93,29.89,7.0,ESE,8.1,-,N/A,,Drizzle,110,2012-12-09 20:15:00
3:35 PM,42.4,42.1,99,29.88,10.0,ESE,9.2,-,0.01,Rain,Rain,110,2012-12-09 20:35:00
3:55 PM,42.1,42.3,100,29.87,4.0,ESE,8.1,-,0.08,Rain,Heavy Rain,110,2012-12-09 20:55:00
4:15 PM,42.3,42.4,100,29.86,10.0,ESE,10.4,-,0.01,,Overcast,110,2012-12-09 21:15:00
4:35 PM,42.6,42.8,100,29.86,10.0,SE,6.9,-,0.01,,Overcast,130,2012-12-09 21:35:00
4:55 PM,42.8,43.0,100,29.85,10.0,SE,5.8,-,0.01,,Overcast,130,2012-12-09 21:55:00
5:15 PM,43.2,43.3,100,29.84,10.0,SE,5.8,-,N/A,,Overcast,140,2012-12-09 22:15:00
5:35 PM,43.7,43.7,100,29.83,7.0,ESE,6.9,-,N/A,Rain,Rain,120,2012-12-09 22:35:00
5:55 PM,44.1,44.2,100,29.83,7.0,SSE,5.8,-,N/A,,Overcast,150,2012-12-09 22:55:00
6:15 PM,45.0,45.1,100,29.82,7.0,SE,6.9,-,N/A,,Overcast,140,2012-12-09 23:15:00
6:35 PM,45.9,46.0,100,29.82,7.0,SSE,5.8,-,N/A,,Overcast,150,2012-12-09 23:35:00
6:55 PM,47.3,47.3,100,29.82,5.0,Calm,Calm,-,N/A,,Overcast,0,2012-12-09 23:55:00
7:35 PM,-9999,-9999,N/A,29.81,3.0,South,5.8,-,N/A,,Overcast,190,2012-12-10 00:35:00
7:55 PM,49.5,49.6,100,29.80,3.0,South,4.6,-,N/A,,Overcast,180,2012-12-10 00:55:00
8:15 PM,50.4,50.5,100,29.78,3.0,SSW,3.5,-,N/A,,Overcast,210,2012-12-10 01:15:00
8:35 PM,50.9,50.9,100,29.78,2.0,SSW,3.5,-,N/A,,Overcast,200,2012-12-10 01:35:00
8:55 PM,51.1,51.3,100,29.78,2.5,South,4.6,-,0.01,Rain,Heavy Rain,190,2012-12-10 01:55:00
9:15 PM,51.3,51.4,100,29.77,2.5,SSW,4.6,-,0.01,Rain,Light Rain,210,2012-12-10 02:15:00
9:35 PM,52.0,52.2,100,29.75,3.0,South,4.6,-,0.01,Rain,Light Rain,190,2012-12-10 02:35:00
9:55 PM,-9999,-9999,N/A,29.74,4.0,South,3.5,-,0.03,Rain,Rain,170,2012-12-10 02:55:00
10:15 PM,52.9,53.1,100,29.73,5.0,South,5.8,-,0.01,Rain,Light Rain,190,2012-12-10 03:15:00
10:35 PM,53.4,53.6,100,29.72,5.0,SSW,4.6,-,0.02,Rain,Light Rain,200,2012-12-10 03:35:00
10:55 PM,53.8,54.0,100,29.72,5.0,South,3.5,-,0.04,Rain,Rain,190,2012-12-10 03:55:00
11:15 PM,54.0,54.1,100,29.71,4.0,SSE,4.6,-,0.03,Rain,Rain,160,2012-12-10 04:15:00
11:35 PM,54.0,54.1,100,29.70,4.0,South,6.9,-,0.07,Rain,Rain,170,2012-12-10 04:35:00
11:55 PM,54.5,54.7,100,29.69,2.5,SSW,3.5,-,0.21,Rain,Heavy Rain,210,2012-12-10 04:55:00